(1) Ceres
ephemeris date magn radius delta ra dec elong phase
Today19 Apr 20259.32.985 AU3.692 AU23h37m-11°33'39.4°12.3°
Opposition2 Oct 20257.62.939 AU1.961 AU00h57m-10°13'164.9°5.1°
(1) Ceres - 2025-04-19
astro.vanbuitenen.nl


 
-1 year
-1 month
-1 day
Now
+1 day
+1 month
+1 year

The interactive orbit chart above shows the body's path through the solar system and its position at the given date. Green and blue lines are shown perpendicular to the ecliptic plane: Green if the path is above the ecliptic plane, blue if it is below. (Left-click and drag to rotate the view; Right-click and drag to move the view; Use scroll wheel to zoom in our out.)

The orbital elements of Ceres are:

            e (Eccentricity)                : 0.0794013
            a (Semimajor axis)              : 2.7660512
            i (Inclination)                 : 10.58780
            Ω (Longitude of ascending node) : 80.25221
            ω (Argument of perihelion)      : 73.27343
            M (Mean anomaly)                : 188.70269
            Epoch                           : 2025 May 05

            L (Longitude of perihelion)     : 153.25251
            B (Latitude of perihelion)      : 10.13498
            P (Orbital period in years)     : 4.60            
        

The light curve chart below shows the estimated development of the minor planet's magnitude.


The all-sky chart below shows the path of the minor planet over the same period as the light curve. The current position is marked yellow.





The following chart shows the path of the minor planet in the next few days. The field of view is optimized for (~10x50) binoculars and finderscopes. A more printer-friendly version of the same chart can be found below.




Ephemerides:
Date       Time       RA (2000)    DEC (2000)    delta   radius  elong  phase   PA    magn
2025-04-19 00:00 UT   23 37 13.2   -11 33 40     3.692    2.985   39.4   12.3   236    9.3 
2025-04-19 20:57 UT   23 38 24.9   -11 27 26     3.684    2.985   40.0   12.5   236    9.3 
2025-04-20 00:00 UT   23 38 35.3   -11 26 32     3.683    2.985   40.0   12.5   236    9.3 
2025-04-21 00:00 UT   23 39 57.2   -11 19 25     3.675    2.985   40.6   12.7   236    9.3 
2025-04-22 00:00 UT   23 41 18.8   -11 12 21     3.666    2.985   41.2   12.8   237    9.3 
2025-04-23 00:00 UT   23 42 40.1   -11 05 19     3.657    2.985   41.9   13.0   237    9.3 
2025-04-24 00:00 UT   23 44 01.1   -10 58 19     3.648    2.985   42.5   13.1   237    9.3 
2025-04-25 00:00 UT   23 45 21.9   -10 51 22     3.639    2.984   43.1   13.3   237    9.3 
2025-04-26 00:00 UT   23 46 42.4   -10 44 27     3.630    2.984   43.7   13.5   237    9.3 
2025-04-27 00:00 UT   23 48 02.6   -10 37 35     3.621    2.984   44.3   13.6   237    9.3 
2025-04-28 00:00 UT   23 49 22.5   -10 30 46     3.611    2.984   44.9   13.8   238    9.3 
2025-04-29 00:00 UT   23 50 42.1   -10 23 59     3.602    2.984   45.5   13.9   238    9.3 
2025-04-30 00:00 UT   23 52 01.4   -10 17 15     3.592    2.984   46.1   14.1   238    9.3 
2025-05-01 00:00 UT   23 53 20.5   -10 10 34     3.582    2.984   46.8   14.2   238    9.3 
2025-05-02 00:00 UT   23 54 39.2   -10 03 56     3.573    2.984   47.4   14.4   238    9.3 
2025-05-03 00:00 UT   23 55 57.6   -09 57 21     3.563    2.984   48.0   14.5   238    9.3 
2025-05-04 00:00 UT   23 57 15.7   -09 50 49     3.553    2.984   48.6   14.7   238    9.3 
2025-05-05 00:00 UT   23 58 33.5   -09 44 20     3.543    2.984   49.2   14.8   239    9.3 
2025-05-06 00:00 UT   23 59 50.9   -09 37 54     3.532    2.983   49.9   15.0   239    9.3 
2025-05-07 00:00 UT   00 01 08.0   -09 31 31     3.522    2.983   50.5   15.1   239    9.3 
2025-05-08 00:00 UT   00 02 24.8   -09 25 11     3.512    2.983   51.1   15.3   239    9.3 
2025-05-09 00:00 UT   00 03 41.3   -09 18 55     3.501    2.983   51.7   15.4   239    9.3 
2025-05-10 00:00 UT   00 04 57.5   -09 12 42     3.491    2.983   52.4   15.5   239    9.3 
2025-05-11 00:00 UT   00 06 13.3   -09 06 33     3.480    2.983   53.0   15.7   239    9.3 
2025-05-12 00:00 UT   00 07 28.7   -09 00 27     3.469    2.983   53.6   15.8   240    9.3 
2025-05-13 00:00 UT   00 08 43.8   -08 54 24     3.458    2.983   54.2   16.0   240    9.3 


    Terminology:
            
    delta:  distance between minor planet and earth in AU
    radius: distance between minor planet and sun in AU
    magn:   magnitude (brightness) estimate    
    ra:     right ascension in hours (24h = 360deg)
    dec:    declination in degrees
    elong:  elongation in degrees (angle sun-earth-minor planet)    
    phase:  phase angle in degrees (angle sun-minor planet-earth)        
    AU:     Astronomical Unit (mean distance between earth and sun: 149597870.7 km
    

Orbital elements provided by the MPC (Minor Planet Center).
Calculations by a modified version of AAPlus, a C# implementation of the AA+ project by PJ Naughter from the algorithms presented in the book "Astronomical Algorithms" by Jean Meeus.
NGC2000 dso catalog and star labels from VizieR as provided by the Strasbourg astronomical Data Center.
Tycho2 catalog from the ESO archive.